Regional Weather Roundup
Issued by NWS

Home | Current Version | Previous Version | Graphics & Text | Print | Product List | Glossary Off
Versions: 1 2 3 4 5 6 7 8 9 10 11 12 13 14 15 16 17 18 19 20 21 22 23 24 25 26 27 28

000
ASUS45 KBOU 281010
RWRCO

WEATHER ROUNDUP FOR COLORADO
NATIONAL WEATHER SERVICE DENVER/BOULDER CO
400 AM MDT MON MAY 28 2018

NOTE: "FAIR" INDICATES FEW OR NO CLOUDS BELOW 12000 FEET WITH NO
SIGNIFICANT WEATHER AND/OR OBSTRUCTIONS TO VISIBILITY.

COZ001>005-013-030-031-281100-
...NORTHWEST COLORADO...

CITY           SKY/WX    TMP DP  RH WIND       PRES   REMARKS
CRAIG          FAIR      45  39  79 SW7       30.04S
HAYDEN         FAIR      49  41  74 NE3       30.07R
MEEKER         FAIR      42  30  62 E3        30.05R
RANGELY        FAIR      55  40  58 E9        30.00S
RABBIT EARS PA FAIR      37  36  93 E7        30.24S
STEAMBOAT SPGS FAIR      48  37  66 CALM      30.06R
WALDEN         FAIR      43  37  81 CALM      30.15S
$$

COZ006>008-011-281100-
...WEST CENTRAL VALLEYS...

CITY           SKY/WX    TMP DP  RH WIND       PRES   REMARKS
GRAND JUNCTION FAIR      56  21  25 CALM      29.94R
MONTROSE       FAIR      51  19  28 SE10      30.01R
EAGLE          FAIR      46  21  37 SE3       30.06S
RIFLE          FAIR      45  20  36 CALM      29.99S
DELTA          FAIR      51  22  32 NE3       29.98R
NUCLA          FAIR      48  14  25 E8        30.05S
$$

COZ017>023-064>068-281100-
...SOUTHWEST COLORADO...

CITY           SKY/WX    TMP DP  RH WIND       PRES   REMARKS
DURANGO        FAIR      41  19  41 CALM      30.05R
CORTEZ         FAIR      42  21  43 E9        30.02S
PAGOSA SPRINGS FAIR      38  13  34 CALM      30.11S
TELLURIDE      FAIR      41  16  36 SE6       30.20S
WOLF CREEK PAS FAIR      37   9  30 S13       30.35F
$$

COZ009-010-012-014-032>034-037-058>063-281100-
...CENTRAL COLORADO...

CITY           SKY/WX    TMP DP  RH WIND       PRES   REMARKS
ASPEN          FAIR      40  24  53 SW10      30.09F
BUENA VISTA    FAIR      46  15  29 W9        30.11S
COPPER MTN     FAIR      45  23  42 N3        30.33S
BERTHOUD PASS  HAZE      32  19  59 SE14G23   30.36S VSB<1/4 WCI  22
COTTONWOOD PAS FAIR      52  21  30 CALM      30.21S
GUNNISON       FAIR      37  26  64 CALM      30.12
GRANBY         FAIR      41  36  82 SE5       30.15S
KREMMLING      FAIR      50  41  71 SE6       30.11S
LEADVILLE      FAIR      33  14  45 CALM      30.20S
MONARCH PASS   FAIR      43   9  24 MISG      30.42S
SALIDA         FAIR      47  10  22 S3        30.17R
SUNLIGHT       FAIR      43  12  28 CALM      30.27F
WILKERSON PASS FAIR      37  32  81 E10       30.32S
$$

COZ069>075-281100-
...SAN LUIS VALLEY/SANGRE DE CRISTO MOUNTAINS...

CITY           SKY/WX    TMP DP  RH WIND       PRES   REMARKS
ALAMOSA        FAIR      39  21  48 SE3       30.06F
DEL NORTE      FAIR      44  10  24 CALM      30.10R
LA VETA PASS   FAIR      45  34  65 CALM      30.34F
SAGUACHE       NOT AVBL
$$

COZ035-036-038>040-281100-
...NORTHERN COLORADO FRONT RANGE...

CITY           SKY/WX    TMP DP  RH WIND       PRES   REMARKS
DENVER INTL AP CLOUDY    57  50  77 N14       30.06R
AURORA         CLOUDY    56  51  83 N14       30.07R
FRONT RANGE AP CLOUDY    59  53  80 N17G23    30.07R
ERIE MUNI ARPT CLOUDY    60  49  66 N8        30.11R
BOULDER MUN AP CLOUDY    59  50  72 CALM      30.06S
CENTENNIAL     CLOUDY    56  50  80 N15       30.08S
BROOMFIELD     LGT RAIN  59  50  72 N7        30.08R
FORT COLLINS   CLOUDY    60  49  66 N10       30.06S
LONGMONT       CLOUDY    62  49  62 N5        30.07R
$$

COZ041-046-047-076>085-087-088-281100-
...PIKES PEAK/PALMER DIVIDE AND SOUTHERN FOOTHILLS...

CITY           SKY/WX    TMP DP  RH WIND       PRES   REMARKS
COLO. SPRINGS  FAIR      56  47  71 N23G37    30.02F
A. F. ACADEMY  MOCLDY    55  46  73 N23       30.06F
SCHRIEVER AFB  NOT AVBL
CHEYENNE MTN   FAIR      56  38  52 N16       29.99S
ELLICOTT         N/A    N/A N/A N/A N23       30.01R
FALCON         FAIR      52  47  84 N23G31    30.07R
FORT CARSON    FAIR      58  46  65 N28G35    29.98R
LIMON          CLOUDY    56  53  90 NW15      30.02R
MONUMENT HILL  CLOUDY    50  46  87 NW13G18   30.13S
CANON CITY     CLEAR     57  39  51 W5        29.96R
WALSENBURG     FAIR      55  43  62 W3        30.02R
TRINIDAD       FAIR      58  43  57 N7G20     29.99R
$$

COZ042>045-048>051-090-091-281100-
...NORTHEAST COLORADO...

CITY           SKY/WX    TMP DP  RH WIND       PRES   REMARKS
GREELEY ARPT   CLOUDY    58  53  84 N12       30.04F
AKRON          CLOUDY    58  52  80 E13       29.99S
BURLINGTON     CLOUDY    58  56  93 NE12      29.95S
WRAY           CLOUDY    61  54  77 NE13      29.96S
YUMA           CLOUDY    59  46  63 NE12      29.98R
STERLING       CLOUDY    61  52  72 NE9       29.98R
HOLYOKE        CLOUDY    61  54  77 NE15      29.97F
FORT MORGAN    CLOUDY    58  51  76 NE10      30.02S
$$

COZ086-089-092>099-281100-
...SOUTHEAST COLORADO...

CITY           SKY/WX    TMP DP  RH WIND       PRES   REMARKS
PUEBLO         FAIR      62  50  64 N25G38    29.92R
LA JUNTA       FAIR      68  58  70 SW7       29.86S
LAMAR          FAIR      71  63  75 S24G37    29.79S
SPRINGFIELD      N/A     64  63  96 S14       29.89F
$$




USA.gov is the U.S. government's official web portal to all federal, state and local government web resources and services.